Temp
60 63 65 67 67 72 68 68 67 68 68 68 66 66 66 66 67 68 69 68 67 66 64 63 62 63 63 63 60 58 57 57 60 59 58 57 59 61 61 62 62 61 62
58 61 62 60 60 66 66 66 68 68 68 70 69 69 69 68 68 68 68 69 67 67 65 63 63 63 63 63 60 59 57 57 60 57 57 55 56 58 60 61 60 60 61
56 59 61 62 61 62 65 66 69 70 68 71 70 66 68 66 65 66 67 67 67 66 66 64 63 64 64 62 61 60 60 58 60 60 59 54 54 55 58 59 59 59 59
58 59 60 61 62 62 65 66 69 72 69 70 69 68 66 66 67 68 68 67 68 66 66 65 64 64 64 63 62 61 61 61 58 59 60 61 57 53 52 57 58 59 59
57 57 59 62 66 67 61 64 65 69 71 70 70 68 68 68 68 68 67 67 67 66 66 65 65 65 64 63 62 61 61 61 61 61 60 58 58 59 55 52 55 57 59
56 57 61 63 64 59 59 59 60 65 68 69 70 69 68 67 65 66 66 66 66 66 66 66 65 65 64 64 62 62 61 61 61 61 62 61 59 57 56 55 56 56 57
49 49 49 51 57 55 55 57 60 61 66 68 69 68 69 68 66 67 66 65 65 65 65 65 64 64 65 64 63 62 62 61 61 59 60 61 62 61 60 57 55 55 55
52 52 55 54 52 53 54 57 60 62 65 67 68 68 68 66 67 67 68 67 66 66 66 65 65 65 65 64 63 63 62 62 61 61 60 61 61 62 61 60 56 52 53
50 50 50 51 52 54 56 59 61 61 65 66 66 66 65 65 65 66 66 68 68 66 65 65 64 64 64 63 63 62 62 61 61 61 61 61 61 61 61 60 60 57 51
48 48 49 48 49 50 52 54 56 57 59 61 64 64 65 64 64 64 64 65 65 64 63 64 64 63 63 63 62 62 62 61 61 61 60 60 61 61 61 59 59 59 58
45 45 46 48 47 47 48 48 51 52 55 59 61 61 61 62 61 61 61 62 62 62 62 63 62 62 61 62 61 61 61 61 61 61 60 60 61 60 60 59 59 58 58
41 42 42 45 45 44 45 45 46 48 50 53 55 56 60 61 61 60 60 60 60 61 61 61 61 61 61 61 61 60 60 60 60 60 60 60 60 59 60 59 59 58 58
40 39 38 39 42 42 42 43 43 44 47 49 50 51 52 54 58 59 60 60 60 60 60 61 60 60 59 59 59 60 59 60 60 60 60 60 60 59 60 60 58 58 58
34 35 35 38 39 39 41 41 42 43 44 45 46 46 48 50 52 57 58 59 60 60 60 60 60 59 59 59 59 58 58 58 58 58 58 58 59 59 59 58 58 58 57
34 34 34 35 38 38 38 40 41 41 43 43 42 42 45 47 48 50 53 58 58 58 59 58 57 57 57 57 56 56 56 56 55 55 56 56 55 51 52 57 57 58 57
33 32 34 35 37 37 37 37 39 39 41 40 40 41 43 44 44 46 48 50 55 56 57 56 56 55 54 47 44 51 55 54 53 53 53 53 49 48 44 43 44 51 57
34 32 32 32 34 37 37 35 36 39 38 38 38 39 40 41 41 43 45 45 47 51 55 55 55 53 53 43 43 43 53 53 53 52 51 49 48 44 46 43 39 40 41
34 33 32 33 33 36 38 37 36 36 36 36 36 37 37 38 39 40 40 42 44 46 48 54 54 53 52 42 42 41 52 51 51 49 48 47 43 39 39 37 35 34 35
34 34 34 34 35 35 38 36 35 35 34 33 34 34 35 36 36 35 36 39 40 43 43 43 45 47 50 38 39 42 49 47 42 40 39 42 39 38 39 35 33 33 32
34 32 33 35 34 34 37 35 33 33 32 33 33 34 34 34 33 31 34 37 39 39 39 36 36 35 36 37 37 41 45 40 35 34 34 35 35 36 37 36 35 34 32
32 33 33 33 32 34 35 33 32 31 33 34 33 33 32 32 32 32 33 35 36 36 35 33 33 33 33 34 37 38 43 39 34 33 32 33 34 35 36 35 34 32 33
30 32 31 31 33 33 33 32 30 34 34 33 32 31 31 32 32 31 32 33 34 34 33 33 32 32 32 33 34 36 37 36 34 32 32 33 34 34 33 32 32 32 32
28 30 29 29 31 32 32 30 31 34 33 32 31 30 31 31 30 29 29 30 31 30 30 30 29 29 30 30 31 33 33 33 32 32 32 32 32 31 30 31 30 30 30
27 27 27 26 27 30 31 31 32 33 32 30 30 30 29 29 30 30 29 28 28 28 27 27 27 27 28 28 28 28 28 29 27 26 26 26 26 26 26 26 26 27 27
26 27 25 26 25 27 29 30 30 31 30 30 29 29 29 28 28 29 29 28 29 29 27 27 27 26 26 28 30 28 26 26 26 27 26 25 25 23 23 24 24 25 25
25 25 25 25 24 25 27 28 28 28 29 29 28 27 27 26 26 27 27 30 30 31 32 31 29 29 30 31 31 30 30 29 29 25 23 22 22 22 22 22 22 23 24
MSLP
1004.37 1004.00 1003.35 1002.75 1002.90 1002.68 1002.51 1002.49 1002.40 1002.58 1003.84 1004.45 1005.21 1006.24 1006.67 1007.33 1007.82 1008.09 1008.66 1009.13 1009.56 1010.24 1010.90 1011.71 1012.35 1012.88 1013.53 1014.19 1014.83 1015.66 1016.26 1016.91 1017.35 1018.02 1018.70 1018.92 1018.83 1018.97 1019.10 1019.08 1019.37 1019.54 1020.31
1003.81 1003.12 1002.78 1002.55 1002.05 1001.67 1001.32 1001.31 1001.36 1001.78 1002.34 1003.14 1003.26 1004.43 1005.30 1006.28 1007.02 1007.64 1008.12 1008.58 1009.00 1009.55 1010.26 1010.95 1011.69 1012.31 1012.99 1013.72 1014.39 1014.79 1015.80 1016.44 1016.76 1017.43 1018.16 1018.74 1019.08 1018.98 1019.00 1019.10 1019.37 1019.59 1019.94
1002.36 1002.00 1001.73 1001.57 1001.32 1000.76 1000.50 1000.21 1000.34 1000.67 1001.04 1001.52 1002.95 1003.89 1004.97 1005.92 1006.65 1007.10 1007.34 1007.65 1008.31 1008.85 1009.48 1010.28 1011.07 1011.69 1012.33 1012.92 1013.70 1014.32 1014.75 1015.61 1016.41 1016.48 1016.95 1018.05 1018.21 1018.62 1018.81 1018.97 1019.23 1019.62 1019.86
1000.72 1000.28 1000.17 1000.14 999.92 999.27 999.18 999.09 999.09 999.42 999.55 1000.57 1001.61 1002.37 1002.87 1003.91 1004.34 1004.91 1005.82 1006.78 1007.47 1008.18 1008.73 1009.70 1010.50 1011.09 1011.74 1012.40 1013.03 1013.81 1014.16 1014.58 1015.49 1016.39 1016.29 1016.41 1016.93 1017.92 1018.67 1018.84 1018.93 1019.17 1019.58
999.45 998.82 998.50 998.49 998.45 997.97 998.01 998.11 998.20 998.49 998.60 999.63 1000.34 1001.22 1001.92 1002.48 1003.10 1004.28 1005.18 1006.02 1006.69 1007.36 1008.25 1009.02 1009.78 1010.35 1011.06 1011.71 1012.40 1013.22 1013.74 1014.01 1014.54 1015.00 1015.62 1016.27 1016.63 1016.84 1017.40 1018.08 1018.64 1018.89 1018.98
998.32 997.56 997.25 997.18 997.16 996.75 996.96 997.38 997.41 997.61 998.00 998.98 999.52 1000.23 1001.03 1001.58 1002.80 1003.47 1004.48 1005.24 1005.91 1006.51 1007.41 1008.22 1008.99 1009.63 1010.27 1010.91 1011.68 1012.31 1012.93 1013.46 1013.85 1014.33 1014.69 1014.82 1015.75 1016.26 1016.49 1016.92 1017.39 1017.72 1018.32
998.69 997.76 997.47 996.96 996.39 996.10 996.44 996.42 996.69 996.91 997.32 998.20 999.12 999.81 1000.33 1000.99 1001.42 1002.18 1003.18 1004.36 1004.97 1005.66 1006.42 1007.39 1008.35 1008.92 1009.47 1010.15 1010.92 1011.51 1012.18 1012.75 1013.18 1013.62 1014.10 1014.30 1014.60 1014.88 1015.42 1016.09 1016.68 1017.33 1017.88
1000.42 999.14 998.33 997.26 996.47 996.84 996.57 996.38 995.78 996.08 997.12 998.00 998.76 999.62 1000.07 1000.54 1001.44 1001.94 1002.38 1003.22 1003.93 1004.60 1005.65 1006.65 1007.56 1008.22 1008.69 1009.45 1010.14 1010.82 1011.38 1012.01 1012.58 1012.96 1013.51 1013.82 1014.09 1014.46 1014.79 1015.24 1016.07 1016.73 1017.39
1001.32 1000.49 999.62 998.76 998.32 997.95 997.71 996.76 996.34 996.78 997.53 998.06 998.65 999.16 999.36 1000.19 1001.24 1001.91 1002.21 1002.76 1003.52 1004.20 1005.05 1006.01 1006.76 1007.46 1008.13 1008.67 1009.45 1010.03 1010.75 1011.42 1011.95 1012.43 1012.96 1013.29 1013.45 1013.81 1014.22 1014.52 1014.99 1015.50 1016.35
1002.90 1001.93 1001.12 1000.76 1000.18 999.47 999.20 998.53 997.33 997.65 998.15 997.92 998.48 999.07 999.55 1000.40 1001.00 1001.79 1002.09 1002.56 1003.09 1003.76 1004.65 1005.49 1006.28 1006.92 1007.54 1008.11 1008.87 1009.51 1010.17 1010.83 1011.40 1011.87 1012.34 1012.73 1012.93 1013.25 1013.61 1014.03 1014.33 1014.61 1015.10
1004.99 1003.87 1003.28 1003.01 1002.55 1001.09 1000.44 1000.00 999.22 999.94 1000.79 1000.12 999.24 999.59 1000.13 1000.80 1001.58 1002.10 1002.45 1002.58 1002.53 1003.28 1004.10 1005.00 1005.84 1006.52 1007.17 1007.76 1008.39 1009.02 1009.64 1010.21 1010.81 1011.25 1011.58 1011.93 1012.32 1012.66 1013.03 1013.36 1013.62 1013.97 1014.52
1007.38 1006.53 1005.92 1005.23 1004.37 1003.19 1002.62 1001.80 1001.93 1001.77 1001.53 1001.19 1000.53 1000.78 1000.46 1000.17 1001.33 1002.36 1002.60 1003.15 1003.02 1003.36 1004.00 1004.88 1005.48 1006.03 1006.84 1007.43 1007.99 1008.59 1009.20 1009.83 1010.26 1010.64 1011.03 1011.34 1011.76 1012.03 1012.25 1012.38 1012.58 1013.01 1013.37
1009.10 1008.73 1007.57 1007.54 1006.64 1005.10 1004.19 1003.82 1003.80 1003.77 1003.99 1002.89 1002.42 1002.39 1002.31 1002.49 1002.91 1002.75 1003.00 1003.12 1002.99 1003.15 1003.89 1004.46 1005.18 1005.68 1006.25 1006.97 1007.63 1008.21 1008.81 1009.27 1009.71 1010.07 1010.41 1010.75 1011.03 1011.34 1011.51 1011.58 1011.68 1012.02 1012.41
1011.23 1010.98 1010.77 1008.78 1007.90 1007.03 1006.70 1005.86 1005.48 1005.38 1005.36 1004.51 1004.34 1004.52 1004.18 1004.23 1004.05 1003.23 1002.82 1002.72 1002.81 1003.11 1003.51 1004.16 1004.90 1005.23 1005.84 1006.63 1007.19 1007.93 1008.47 1008.90 1009.28 1009.65 1009.89 1010.14 1010.35 1010.66 1010.77 1010.81 1010.78 1011.19 1011.38
1012.81 1012.03 1011.08 1009.58 1009.07 1008.07 1007.56 1007.67 1007.63 1008.21 1007.50 1006.66 1006.33 1005.94 1005.51 1005.00 1004.65 1004.16 1003.66 1003.07 1003.16 1003.15 1003.65 1004.20 1004.88 1005.37 1005.86 1006.59 1007.25 1007.76 1008.26 1008.67 1009.11 1009.41 1009.60 1009.81 1010.01 1010.22 1010.37 1010.54 1010.43 1010.31 1010.28
1013.99 1013.53 1012.81 1011.94 1011.14 1010.70 1010.38 1010.21 1009.47 1008.79 1008.21 1007.76 1007.69 1007.52 1006.97 1006.33 1005.85 1005.35 1004.81 1004.21 1003.72 1003.75 1003.93 1004.38 1004.68 1005.21 1005.74 1006.40 1007.12 1007.35 1007.99 1008.47 1008.66 1009.17 1009.38 1009.43 1009.61 1009.75 1009.73 1009.80 1009.84 1009.86 1009.51
1015.36 1014.92 1014.40 1013.61 1013.14 1012.38 1012.42 1011.73 1010.92 1010.17 1009.63 1009.34 1008.90 1008.61 1007.96 1007.54 1007.17 1006.60 1006.02 1005.47 1005.02 1004.74 1004.57 1004.69 1004.95 1005.33 1006.15 1006.45 1007.19 1007.48 1007.83 1008.16 1008.34 1008.80 1009.14 1009.30 1009.43 1009.54 1009.48 1009.31 1009.19 1009.15 1008.99
1016.82 1016.39 1015.88 1015.05 1014.19 1013.84 1013.42 1012.67 1011.95 1011.35 1010.78 1010.56 1010.38 1009.93 1009.30 1008.68 1008.20 1007.73 1007.23 1006.68 1006.17 1005.95 1005.70 1005.42 1005.27 1005.67 1006.25 1006.57 1007.29 1007.57 1007.66 1007.97 1008.16 1008.64 1008.93 1009.19 1009.38 1009.37 1009.39 1009.50 1009.58 1009.61 1009.09
1017.74 1017.37 1016.98 1016.21 1015.83 1015.19 1014.43 1013.80 1013.08 1012.24 1011.81 1011.60 1011.27 1010.82 1010.29 1009.55 1009.18 1008.68 1008.11 1007.77 1007.50 1007.10 1006.94 1007.04 1006.54 1006.47 1006.77 1007.25 1007.25 1007.55 1007.62 1008.08 1008.52 1009.00 1009.20 1009.22 1009.42 1009.34 1009.43 1009.60 1009.93 1010.09 1009.86
1018.56 1018.15 1017.67 1017.20 1016.54 1015.84 1015.24 1014.67 1013.84 1013.31 1013.04 1012.87 1012.52 1011.97 1011.44 1010.80 1010.44 1009.99 1009.40 1008.93 1008.60 1008.36 1008.14 1008.24 1008.32 1008.06 1007.88 1007.88 1007.57 1007.57 1007.54 1008.19 1008.88 1009.54 1009.48 1009.62 1009.62 1009.50 1009.52 1009.81 1010.44 1010.32 1010.34
1019.24 1018.73 1017.94 1017.61 1017.27 1016.70 1015.98 1015.33 1014.65 1014.32 1014.24 1013.73 1013.08 1012.49 1011.99 1011.53 1011.35 1011.06 1010.56 1010.05 1009.62 1009.22 1008.96 1009.04 1009.31 1009.31 1009.17 1008.67 1007.79 1007.31 1007.51 1008.00 1008.97 1009.49 1009.92 1010.18 1010.04 1009.98 1009.86 1010.02 1010.51 1010.64 1010.96
1020.05 1019.30 1018.55 1018.37 1017.97 1017.68 1016.94 1016.25 1015.71 1015.53 1014.84 1014.34 1013.85 1013.53 1013.23 1012.76 1012.30 1011.84 1011.30 1010.75 1010.41 1010.15 1009.99 1010.05 1010.14 1009.98 1010.14 1009.58 1008.67 1008.09 1007.81 1008.33 1008.98 1009.88 1010.37 1010.63 1010.83 1010.58 1010.26 1010.82 1011.30 1011.42 1011.43
1021.01 1020.26 1019.64 1019.45 1018.98 1018.56 1018.00 1017.23 1016.85 1016.16 1015.42 1015.07 1014.74 1014.42 1014.06 1013.49 1012.95 1012.45 1012.14 1011.77 1011.68 1011.41 1011.07 1011.09 1011.21 1011.38 1011.14 1010.78 1010.32 1010.03 1009.29 1009.52 1009.89 1010.60 1010.96 1011.32 1011.69 1011.47 1011.33 1011.90 1012.02 1012.15 1012.44
1021.83 1021.05 1020.55 1020.41 1020.01 1019.38 1018.79 1018.11 1017.35 1016.72 1016.20 1015.92 1015.66 1015.46 1015.23 1014.93 1014.41 1014.07 1013.71 1013.19 1012.85 1012.55 1012.40 1012.18 1012.20 1012.15 1011.99 1011.86 1011.68 1011.42 1011.17 1010.95 1011.55 1011.86 1012.26 1012.68 1012.60 1012.40 1012.63 1012.88 1013.24 1013.42 1013.54
1022.29 1021.48 1021.16 1021.07 1020.75 1019.99 1019.66 1018.91 1018.18 1017.66 1017.10 1016.71 1016.53 1016.36 1016.20 1016.13 1015.86 1015.36 1015.07 1014.63 1014.47 1014.17 1013.91 1013.74 1013.52 1013.08 1013.02 1012.99 1012.85 1012.46 1012.36 1012.57 1012.51 1013.03 1012.67 1013.65 1013.68 1013.61 1013.77 1014.25 1014.57 1014.72 1014.88
1022.61 1022.04 1021.87 1021.79 1021.42 1020.75 1020.25 1019.49 1019.30 1018.74 1018.14 1017.62 1017.43 1017.41 1017.35 1017.21 1016.82 1016.51 1016.42 1016.21 1015.85 1015.54 1015.16 1014.74 1014.42 1014.36 1014.22 1014.09 1013.84 1013.65 1013.27 1013.53 1013.51 1013.89 1013.91 1014.67 1015.19 1014.81 1015.05 1015.35 1015.53 1015.86 1015.87
Wind_Speed
28 21 18 15 13 17 14 15 14 17 13 12 13 12 13 13 11 11 15 13 12 13 11 7 9 9 9 9 8 4 5 3 5 5 3 2 2 3 3 4 5 6 5
25 25 17 10 10 15 14 11 15 16 16 13 14 11 12 11 9 8 11 15 14 15 12 11 10 11 8 9 9 7 4 3 7 4 3 2 1 2 3 4 5 6 5
26 25 24 19 14 15 16 14 15 18 18 19 11 4 8 5 7 10 10 15 17 15 14 12 10 11 9 9 11 9 10 7 5 6 5 3 4 2 2 5 5 6 5
23 22 23 21 19 16 15 16 15 18 19 19 16 18 16 14 11 14 13 12 16 15 14 13 11 11 9 10 10 8 8 8 8 3 3 1 5 4 2 2 5 6 8
21 21 21 21 22 16 13 14 12 12 14 19 20 17 17 13 10 10 14 14 14 15 14 14 14 13 10 11 13 11 10 7 8 8 5 3 1 1 3 3 3 4 7
17 18 19 20 20 9 9 10 11 12 13 17 20 22 21 16 11 13 12 12 11 11 14 13 12 12 11 12 11 12 13 11 9 8 8 8 7 4 3 2 5 10 5
12 10 8 9 11 10 10 10 15 11 12 17 19 20 19 17 18 16 13 14 12 9 13 13 12 11 12 12 11 11 11 10 10 9 8 7 9 4 5 3 2 3 2
14 15 14 10 9 5 4 7 6 10 12 15 17 14 13 9 10 13 13 12 11 11 13 13 12 13 13 12 12 9 9 10 9 11 9 8 8 6 6 6 5 2 4
17 19 19 16 15 13 11 6 11 9 8 11 11 12 10 11 10 12 12 12 13 11 13 15 13 13 12 13 12 9 10 9 9 10 11 9 8 7 7 6 7 8 6
22 19 21 19 15 16 13 14 17 16 12 4 7 9 9 10 9 10 13 15 12 12 12 12 12 11 12 12 12 9 9 10 8 7 10 10 7 6 7 7 7 8 10
22 19 22 18 14 17 18 18 21 18 10 7 6 6 9 9 6 4 5 8 10 10 11 12 12 11 10 11 10 9 8 11 10 9 10 12 11 7 7 8 8 9 9
22 22 23 20 14 17 17 18 18 14 16 13 13 12 8 8 5 4 3 5 8 9 10 10 11 11 11 10 10 10 9 10 10 9 9 10 7 10 10 9 12 10 12
22 20 20 19 16 17 19 19 18 16 13 13 14 12 13 10 3 4 8 8 8 10 9 10 11 12 11 11 9 9 8 9 9 9 9 11 11 13 11 13 10 11 10
18 17 13 16 19 19 17 19 19 18 15 15 14 12 12 9 6 4 4 5 7 8 9 9 9 9 10 9 9 8 8 7 7 6 6 6 8 10 8 8 10 9 11
19 19 19 18 22 21 21 18 17 13 12 13 14 14 12 12 11 11 10 3 3 5 6 7 6 6 7 5 7 7 7 7 6 6 6 6 8 11 11 7 9 11 12
18 18 17 20 21 21 18 16 15 15 14 14 14 13 12 13 13 13 11 10 8 2 5 6 7 7 4 9 8 9 7 6 6 5 6 6 9 9 13 15 17 16 10
18 17 17 17 17 18 16 15 15 14 14 13 14 14 13 12 12 11 12 11 10 9 1 3 5 4 4 8 9 9 5 5 5 5 5 5 4 6 6 10 10 14 19
17 16 14 15 16 16 14 13 13 14 13 13 13 13 13 12 12 12 12 12 10 9 8 3 3 4 4 9 10 9 5 5 5 4 3 5 5 3 4 1 4 5 6
14 13 13 14 13 14 14 13 12 13 14 14 14 13 13 12 13 12 12 10 9 8 8 7 9 6 5 9 4 7 5 4 5 3 3 3 2 3 6 5 5 4 5
12 13 12 12 13 15 14 12 13 14 14 13 12 11 11 11 11 11 10 9 8 7 6 8 8 13 9 13 11 6 4 5 4 3 4 9 2 6 7 6 1 5 3
14 13 12 12 13 14 14 13 13 14 12 11 12 13 13 12 11 9 7 8 7 6 7 7 8 8 12 9 15 2 3 5 5 3 3 3 9 10 10 7 3 5 6
13 15 12 12 13 13 13 12 13 12 11 11 12 13 13 10 9 10 9 10 9 7 8 7 6 8 9 20 18 13 9 7 6 6 5 6 11 15 18 13 14 12 9
11 11 11 12 12 13 12 13 12 12 11 11 12 12 12 13 12 12 12 9 9 8 8 7 6 6 7 7 19 21 18 15 11 7 14 18 17 18 17 17 15 9 6
9 10 11 11 12 13 13 12 13 12 10 10 10 10 11 11 13 9 8 9 9 8 8 7 7 6 7 6 6 7 6 15 11 11 10 10 11 12 10 9 10 7 6
9 9 10 11 11 12 12 12 13 11 9 9 9 9 8 9 8 10 11 9 11 11 6 7 7 7 8 9 10 9 6 6 8 5 7 6 5 7 8 8 7 6 7
10 10 11 11 10 10 11 14 12 11 9 9 8 8 6 7 7 7 7 20 21 22 21 19 10 8 15 15 16 17 18 16 11 7 8 8 6 7 7 7 7 7 9
Wind_Direction
277 275 268 256 248 262 246 218 196 197 180 181 181 186 195 198 196 194 197 189 186 184 179 173 166 171 180 179 168 136 144 109 135 117 116 69 133 166 180 173 171 183 190
272 272 266 264 237 247 244 223 210 187 188 192 188 191 190 198 197 187 190 198 189 188 180 175 178 178 173 176 172 155 137 122 166 141 127 161 177 209 184 176 184 180 165
263 265 267 260 247 236 240 227 210 198 191 192 182 146 161 134 168 189 190 198 195 188 181 180 178 179 178 178 181 178 166 163 185 186 143 154 205 137 165 198 186 181 183
261 253 256 255 242 227 230 221 216 204 194 185 181 183 183 185 195 197 194 190 188 184 181 179 177 179 181 184 182 184 183 161 176 186 238 149 140 172 167 186 198 184 195
261 253 249 250 241 228 216 216 212 208 192 188 189 190 189 196 186 184 185 188 186 180 182 181 185 184 184 183 182 179 189 185 180 190 172 174 187 139 140 171 170 203 197
268 251 255 255 238 214 184 194 195 199 187 189 193 193 197 183 174 172 179 185 187 176 183 185 186 184 184 181 181 184 188 188 187 192 199 189 186 190 178 153 183 199 190
335 313 295 276 236 187 197 186 188 175 178 188 193 194 195 187 184 179 176 177 179 178 187 179 185 187 182 179 180 178 186 190 193 181 202 205 211 178 184 139 144 158 164
352 359 359 13 28 30 196 177 142 148 173 183 190 189 185 178 184 184 175 180 184 186 177 181 185 186 179 178 182 187 190 192 201 199 202 207 208 203 198 200 173 165 192
3 11 11 18 24 26 15 69 95 70 151 170 163 166 153 157 171 183 178 181 184 183 177 187 185 179 179 175 179 186 187 189 197 204 204 213 212 207 207 198 195 204 194
2 8 11 8 16 33 21 27 61 53 24 27 175 156 156 162 170 180 182 183 178 165 171 183 182 177 178 176 177 183 185 189 200 201 199 209 211 205 207 205 206 219 229
10 7 9 3 8 31 28 30 38 41 15 15 62 109 129 128 135 158 191 188 162 164 169 174 175 170 172 174 178 175 173 192 200 198 198 211 210 214 207 203 203 208 205
13 14 13 355 5 33 29 36 37 27 23 13 37 41 41 59 77 195 161 208 177 169 174 177 171 166 173 171 179 179 182 196 202 197 203 217 201 218 223 212 210 209 209
22 15 11 358 358 30 31 29 31 26 15 23 31 30 31 30 350 209 198 200 186 170 167 170 179 174 174 172 179 183 189 193 203 208 215 232 225 229 232 227 217 219 215
9 17 358 2 15 21 28 27 25 22 12 27 31 23 23 13 1 337 216 185 168 163 169 177 189 175 161 172 171 178 182 189 199 203 210 218 228 232 229 227 228 222 215
12 8 4 5 15 14 19 21 29 17 16 30 27 21 13 11 8 12 8 342 150 149 159 148 155 141 148 155 163 171 184 192 199 211 217 229 235 237 240 253 261 238 225
6 7 6 9 14 13 11 5 10 16 18 28 26 16 15 15 11 7 10 15 27 117 145 165 152 168 163 162 194 169 179 190 188 213 227 229 237 247 248 246 244 246 238
5 7 5 6 3 12 5 5 3 10 20 21 20 12 12 17 12 7 14 14 17 1 334 169 147 154 175 169 193 187 175 186 191 208 233 253 248 263 274 264 263 258 251
4 7 0 5 4 357 3 2 9 11 17 18 16 10 6 12 10 11 15 8 7 6 3 325 185 167 183 178 205 199 189 189 195 200 223 238 266 295 262 188 55 22 4
2 3 1 4 0 357 358 4 10 15 16 12 10 6 1 7 8 9 4 5 360 7 9 13 15 13 82 24 265 185 182 167 126 76 20 275 233 165 142 125 119 76 37
360 360 358 1 2 0 356 7 13 15 12 5 4 7 6 10 9 0 358 356 3 16 28 34 25 32 9 13 347 231 157 154 133 81 56 38 98 139 126 115 134 103 42
357 360 3 10 6 357 356 5 12 14 4 4 7 12 11 9 6 358 359 359 7 28 40 43 34 30 20 3 2 286 182 156 132 105 74 39 79 82 78 81 92 101 99
359 5 10 4 6 357 359 7 12 1 4 10 16 15 14 12 8 9 7 13 13 28 40 40 33 32 16 21 25 36 77 107 114 106 86 69 85 89 90 84 88 80 86
359 6 12 1 1 358 1 5 359 358 8 14 19 18 16 18 15 17 16 20 19 22 29 39 36 22 10 18 30 42 61 68 87 84 92 92 82 81 75 76 78 74 79
357 9 15 7 358 354 358 4 358 355 8 21 22 22 22 22 29 29 28 31 24 26 27 29 33 24 25 20 12 29 34 70 69 74 70 68 76 68 68 58 54 59 75
2 16 15 4 355 356 358 1 3 355 4 22 25 24 26 22 21 37 34 39 42 42 37 38 41 42 40 41 56 61 61 57 58 71 72 50 56 59 66 66 63 70 78
7 14 12 4 353 354 356 6 359 1 7 25 24 23 21 17 23 25 32 37 45 48 55 57 53 48 61 60 65 71 71 71 71 61 64 61 40 62 68 68 75 70 82